Location: Mannheim
(49.4880°N, 8.4650°E)
Time: 20:35:22
(UTC+02:00)

ISS - Pass Details

Date: 15 May 2024
Orbit: 411 x 418 km, 51.6° (Epoch: 30 May)

Event Time Altitude Azimuth Distance (km) Brightness Sun altitude
Rises 00:53:31 0° 285° (WNW) 2,370 0.4 -21.3°
Reaches altitude 10° 00:55:38 10° 288° (WNW) 1,502 -0.7 -21.3°
Enters shadow 00:58:38 63° 322° (NW) 471 -3.4 -21.4°
